Regional Weather Roundup
Issued by NWS

Home | Current Version | Previous Version | Text Only | Print | Product List | Glossary Off
Versions: 1 2 3 4 5 6 7 8 9 10 11 12 13 14 15 16 17 18 19 20 21 22 23 24 25 26 27 28 29 30 31 32 33 34 35 36 37 38 39 40 41 42 43 44 45 46 47 48 49 50

000
ASUS43 KMPX 211610
RWRMN
WEATHER ROUNDUP FOR MINNESOTA
NATIONAL WEATHER SERVICE TWIN CITIES/CHANHASSEN MN
1100 AM CDT SAT OCT 21 2017


NOTE: "FAIR" INDICATES FEW OR NO CLOUDS BELOW 12,000 FEET WITH NO
SIGNIFICANT WEATHER AND/OR OBSTRUCTIONS TO VISIBILITY. N/A MEANS
CURRENT SKY AND/OR WEATHER CONDITIONS ARE NOT AVAILABLE.

MNZ060>063-068>070-211700-
   Twin Cities Metro

CITY           SKY/WX    TMP DP  RH WIND       PRES   REMARKS
TWIN CITIES    CLOUDY    61  60  97 S16       29.68F
ST PAUL        LGT RAIN  60  59  96 SE16      29.68F
CRYSTAL        CLOUDY    61  57  87 S13G23    29.66R
BLAINE         CLOUDY    63  61  94 SE13G22   29.67S
LAKEVILLE      CLOUDY    59 N/A N/A SE10G21   29.69S
EDEN PRAIRIE   LGT RAIN  62  59  90 S9        29.67R
SOUTH ST PAUL  LGT RAIN  60  60 100 S10G16    29.70R
LAKE ELMO      RAIN      61  59  94 S17G25    29.71S
$$
MNZ001>005-007-008-013>017-022>024-027-028-211700-
   Northwest Minnesota

CITY           SKY/WX    TMP DP  RH WIND       PRES   REMARKS
BEMIDJI        CLOUDY    62  56  80 SE16      29.52S
HALLOCK        SUNNY     61  39  44 SW18G24   29.40R
ROSEAU         CLOUDY    66  59  77 S18G25    29.42R
WARROAD        CLOUDY    64  59  82 S15       29.44S
THIEF RVR FALL CLOUDY    64  57  78 S16       29.46R
CROOKSTON      MOSUNNY   63  46  55 W14       29.46R
FOSSTON        CLOUDY    64  55  72 S21       29.49R
DETROIT LAKES  CLOUDY    63  55  77 S12       29.52R
MOORHEAD       CLOUDY    61  43  51 CALM      29.49R
PARK RAPIDS    CLOUDY    63  57  81 S20G30    29.54S
MAHNOMEN       CLOUDY    63  57  80 S16G22    29.49R
$$
MNZ006-009>011-018-025>026-211700-
   North Central Minnesota

CITY           SKY/WX    TMP DP  RH WIND       PRES   REMARKS
BAUDETTE       CLOUDY    65  57  75 S20G29    29.47F
FLAG ISLAND    CLOUDY    55  52  88 S21       29.43S
INTL FALLS     CLOUDY    65  54  67 S13G20    29.55S
WASKISH        CLOUDY    64  57  77 S12G20    29.52S
BIG FORK       CLOUDY    63  54  72 S13G24    29.58R
LONGVILLE      CLOUDY    63  55  77 S15G24    29.58R
GRAND RAPIDS   CLOUDY    58  56  93 SE13      29.64R
CRANE LAKE     CLOUDY    61  54  77 S14G22    29.64R
ORR            CLOUDY    63  52  67 SE18      29.59S
COOK           PTSUNNY   61  54  77 S9G20     29.64S
WALKER         CLOUDY    61  55  78 SE10G18   29.54F
$$
MNZ012-019>021-037-211700-
   Northeast Minnesota

CITY           SKY/WX    TMP DP  RH WIND       PRES   REMARKS
DULUTH         LGT RAIN  56  56 100 S17       29.69F FOG
ELY            DRIZZLE   59  52  77 S12G18    29.68S
HIBBING        LGT RAIN  59  54  83 S12G22    29.65S
EVELETH        DRIZZLE   59  56  92 S14       29.68R
DULUTH HARBOR  LGT RAIN  57  55  94 S14       29.70F
TWO HARBORS    RAIN      61  55  82 S8        29.70R
SILVER BAY     LGT RAIN  57  55  94 S7        29.71R
GRAND MARAIS     N/A     58  50  75 E6        29.75F
G MARAIS ARPRT CLOUDY    55  46  71 SE9       29.77S
$$
MNZ029>031-032-039>041-046>048-054>057-064-211700-
   West Central Minnesota

CITY           SKY/WX    TMP DP  RH WIND       PRES   REMARKS
FERGUS FALLS   CLOUDY    64  57  77 S14       29.50S
WHEATON        CLOUDY    64  57  77 S8        29.50F
MORRIS         CLOUDY    66  61  82 S10       29.51S
ALEXANDRIA     CLOUDY    64  58  80 S14       29.56S
ELBOW LAKE     CLOUDY    63  59  86 S12       29.52S
WADENA         CLOUDY    63  55  77 S12       29.54S
GLENWOOD       CLOUDY    64  59  82 S14G22    29.56R
APPLETON       CLOUDY    70  61  73 S9        29.50F
BENSON         CLOUDY    68  61  77 SW20      29.54S
ORTONVILLE     CLOUDY    66  59  77 N6        29.50S
MADISON        CLOUDY    72  63  73 S14       29.51S
WILLMAR        CLOUDY    66  61  82 S14G23    29.58S
$$
MNZ033>034-036-042>043-049>051-058-059-211700-
   Central Minnesota

CITY           SKY/WX    TMP DP  RH WIND       PRES   REMARKS
ST CLOUD       CLOUDY    59  59 100 SE13      29.62S
SAUK CENTRE    CLOUDY    63  58  85 S20G26    29.57S
PAYNESVILLE    CLOUDY    62  59  90 SE13G23   29.59S
AITKIN         RAIN      55  54  94 S16G22    29.61F
PINE RIVER     CLOUDY    57  54  88 S15       29.63R
BRAINERD       CLOUDY    60  56  86 S14G28    29.60S
STAPLES        CLOUDY    61  54  77 SE8G18    29.57R
LONG PRAIRIE   CLOUDY    61  55  82 E18G24    29.57S
LITTLE FALLS   CLOUDY    59  54  82 SE14G20   29.60S
LITCHFIELD     CLOUDY    64  63  94 SE9G16    29.60F
BUFFALO        CLOUDY    60  57  90 SE9G17    29.65S
MAPLE LAKE     CLOUDY    61  60  97 SE9       29.64S
HUTCHINSON     CLOUDY    63  61  93 SE12G21   29.63S
$$
MNZ037-044-045-052-053-211700-
   East Central Minnesota

CITY           SKY/WX    TMP DP  RH WIND       PRES   REMARKS
PRINCETON      LGT RAIN  61  57  88 SE13      29.65S
MORA           LGT RAIN  55  54  94 SE5       29.68S
CAMBRIDGE      RAIN      61  61 100 SE9       29.66S
RUSH CITY      RAIN      59  57  92 SE10G17   29.68F
MOOSE LAKE     LGT RAIN  59  55  88 S10       29.66F
HINCKLEY       RAIN      59  59 100 SE10      29.69S
CLOQUET        RAIN      57  55  94 SE9G20    29.68F
MCGREGOR       CLOUDY    59  55  88 SE13G18   29.65S
$$
MNZ071>073-080-081-089-090-097-098-211700-
   Southwest Minnesota

CITY           SKY/WX    TMP DP  RH WIND       PRES   REMARKS
MONTEVIDEO     CLOUDY    66  61  82 S10G17    29.53S
GRANITE FALLS  CLOUDY    70  63  78 S18G26    29.56S
CANBY          PTSUNNY   71  62  72 S18G28    29.51F
MARSHALL       PTSUNNY   71  62  73 S31       29.52F
REDWOOD FALLS  CLOUDY    69  60  73 S24G32    29.57S
OLIVIA         CLOUDY    68  61  77 S16G25    29.57S
PIPESTONE      PTSUNNY   66  61  82 S16       29.55S
WORTHINGTON    CLOUDY    65  62  90 S17G24    29.61R
JACKSON        CLOUDY    63  59  88 S20G25    29.65S
TRACY          CLOUDY    68  63  84 S24G30    29.57S
SLAYTON        CLOUDY    67  62  82 S18G28    29.58S
$$
MNZ065>067-074>077-082>085-091>093-211700-
   South Central Minnesota

CITY           SKY/WX    TMP DP  RH WIND       PRES   REMARKS
MANKATO        CLOUDY    63  60  90 S14G25    29.67R
NEW ULM          N/A     64  61  88 S22G29    29.63S
ST JAMES       CLOUDY    64  61  88 SE23G31   29.65R
FAIRMONT       CLOUDY    63  60  90 S23G31    29.66S
GLENCOE        CLOUDY    63  63 100 S10G22    29.64R
FARIBAULT      CLOUDY    61  59  94 SE15G23   29.71S THUNDER
OWATONNA       DRIZZLE   61  59  94 SE17G24   29.72F
WASECA         CLOUDY    61  59  94 S14G24    29.72S
$$
MNZ078>079-086>088-094>096-211700-
   Southeast Minnesota

CITY           SKY/WX    TMP DP  RH WIND       PRES   REMARKS
ROCHESTER      CLOUDY    61  57  87 S20G30    29.79R
RED WING       CLOUDY    61  55  82 S12       29.75S
STANTON        RAIN      61  58  89 S17G28    29.70F
DODGE CENTER   CLOUDY    61  57  88 S21G28    29.76R
WINONA         CLOUDY    70  57  64 S8G17     29.79F
AUSTIN         CLOUDY    63  57  82 S18G26    29.77R
PRESTON        CLOUDY    63  56  78 S23G32    29.80R
$$
ABBREVIATIONS USED IN REMARKS
   TC - TEMPERATURES IN CELSIUS
  WCI - WIND CHILL INDEX
   HX - HEAT INDEX
  VSB - VISIBILITY
$$




USA.gov is the U.S. government's official web portal to all federal, state and local government web resources and services.